Voltar ao catálogo

SL-16 DEB

AtivoLEO
NORAD 29105·DEBRIS·🇷🇺 Russia

Lançado Jun 10, 2004 de Baikonur Cosmodrome

Loading…

Próximas Passagens (próximas 24 horas)

TLE

EnvelhecendoSource: Space-Track

Época: Sep 12, 2026, 05:11 UTC

1 29105U 04021G   26255.21658960  .00003161  00000-0  19097-2 0  9990
2 29105  70.9159  94.3029 0171278 117.9475 243.9096 14.00253790666155

Acompanhe SL-16 DEB em tempo real com AllMySat

Download on the App Store